Regional Weather Roundup
Issued by NWS

Home | Current Version | Previous Version | Graphics & Text | Print | Product List | Glossary On
Versions: 1 2 3 4 5 6 7 8 9 10 11 12 13 14 15 16 17 18 19 20 21 22 23 24 25 26 27 28 29 30 31 32 33 34 35 36 37 38 39 40 41 42 43 44 45 46 47 48 49 50
000
ASUS45 KTFX 271404
RWRMT
MONTANA HOURLY WEATHER ROUNDUP
NATIONAL WEATHER SERVICE GREAT FALLS MT
704 AM MST TUE JAN 27 2015

NOTE: "FAIR" INDICATES FEW OR NO CLOUDS BELOW 12000 FEET WITH NO
SIGNIFICANT WEATHER AND/OR OBSTRUCTIONS TO VISIBILITY.

* THESE STATIONS ARE NOT UNDER NWS QUALITY CONTROL. THEY DO NOT
   REPORT WEATHER SUCH AS PRECIPITATION OR FOG.

MTZ001>007-043-271500-
WEST OF THE DIVIDE
CITY           SKY/WX    TMP DP  RH WIND       PRES   REMARKS
KALISPELL      FOG       16  14  92 CALM      29.99S VSB M1/4
MISSOULA       CLEAR     21  19  92 CALM      30.06S
BUTTE          MOCLDY    25  21  85 CALM      30.05F
MULLAN PASS    MOCLDY    45  25  45 W5        30.01F
* ANACONDA     MOCLDY    39  25  57 S9         N/A   WCI  33
* ESSEX        N/A       24  23  96 W1         N/A
* LINCOLN      N/A       22  20  92 NE1        N/A
* LOOKOUT PASS N/A       37  29  73 S3         N/A
* POLSON       N/A       33  29  85 N/A        N/A
* RONAN APT    PTCLDY    28  27  96 N/A        N/A
* SEELEY LAKE  N/A       17  15  92 N/A        N/A
* THOMP F APT  MOCLDY    39  23  53 NE3        N/A
* YAAK HILL    N/A       31  28  89 S1         N/A
$$

MTZ008-052>055-271500-
SOUTHWEST MONTANA
CITY           SKY/WX    TMP DP  RH WIND       PRES   REMARKS
BOZEMAN        CLEAR     27  23  85 S6        30.04R WCI  20
DILLON         MOCLDY    36  27  70 S13       30.06R WCI  27
* W YELLOWSTON CLEAR     16  14  92 N/A        N/A
* THREE FORKS  PTCLDY    25  18  75 N/A        N/A
* BOULDER HILL N/A       39  22  51 S9         N/A   WCI  33
* MONIDA PASS  N/A       32  23  69 E2         N/A
* RAYNOLDS PAS N/A       29  10  45 SE6G17     N/A   WCI  23
* WHITEHALL    N/A       31  26  82 NW4G11     N/A
* WISE RIVER   N/A       23  20  88 NW3        N/A
$$

MTZ009>010-012-014-046-048-049-054-271500-
EAST SLOPES AND CENTRAL MONTANA
CITY           SKY/WX    TMP DP  RH WIND       PRES   REMARKS
CUT BANK       MOCLDY    48  25  41 W15       29.85R
GREAT FALLS    CLOUDY    48  28  46 SW6       29.90S
HELENA         PTCLDY    32  27  82 CALM      30.01S
MALMSTROM AFB  CLOUDY    46  28  50 SW14      29.90S
* DEARBORN     N/A       47  28  48 S11        N/A
* EAST GLACIER N/A       47  20  34 W10        N/A
* MONARCH      N/A       46  18  33 S10        N/A
* PENDROY      N/A       45  21  38 W2         N/A
* ROGERS PASS  N/A       45  22  40 NW4G9      N/A
* SWEET GRASS  N/A       49  21  33 W12        N/A
$$

MTZ011-013-016-021-035-040-045-047-050-051-271500-
NORTH CENTRAL MONTANA
CITY           SKY/WX    TMP DP  RH WIND       PRES   REMARKS
HAVRE          CLOUDY    45  30  56 SW18      29.83S
LEWISTOWN      CLOUDY    46  27  48 SW13      29.93S
* N BAR RANCH  CLEAR     46  21  37 W7        29.93S
* CHESTER      N/A       32  27  82 NE1        N/A
* DENTON       N/A       47  26  44 S9         N/A
* GEYSER       N/A       59  22  24 SW11G16    N/A
* JUDITH GAP   N/A       49  25  39 SW17       N/A
* LOMA         N/A       46  30  54 SW4        N/A
$$

MTZ017>020-022>027-061-062-271500-
NORTHEAST MONTANA
CITY           SKY/WX    TMP DP  RH WIND       PRES   REMARKS
GLASGOW        PTCLDY    30  27  89 SE3       29.84R
GLENDIVE       CLEAR     32  28  85 S7        29.87S WCI  25
JORDAN         MOCLDY    27  25  92 CALM      29.87R
SIDNEY         PTCLDY    28  27  96 S3        29.86S
WOLF POINT     PTCLDY    28  25  89 SW8       29.84S WCI  20
* BEAVER HILL  N/A       39  30  70 SE8        N/A   WCI  33
* CIRCLE       N/A       37  32  82 N/A        N/A
* LINDSAY DVD  N/A       49  29  46 W7         N/A
* NAVAJO       N/A       39  32  76 W15        N/A   WCI  31
* SACO         N/A       32  29  89 S9         N/A   WCI  24
$$

MTZ028>042-056>058-271500-
SOUTHCENTRAL AND SOUTHEAST MONTANA
CITY           SKY/WX    TMP DP  RH WIND       PRES   REMARKS
BAKER          CLEAR     30  27  89 CALM      29.91R
BILLINGS       MOCLDY    45  28  51 SW17      29.93S
LIVINGSTON     PTCLDY    54  23  30 W22G31    29.98F
MILES CITY     PTCLDY    34  27  76 S9        29.91R WCI  27
* LAUREL APT   MOCLDY    39  23  53 S9         N/A   WCI  33
* ROUNDUP APT  MOCLDY    43  25  49 S14        N/A
* ALZADA       N/A       39  28  65 NW2        N/A
* HYSHAM       N/A       49  24  38 W7         N/A
* LAME DEER    N/A       55  23  29 W9         N/A
* REED POINT   N/A       26  25  96 E1         N/A
* ROSCOE HILL  N/A       52  11  19 S2G7       N/A
$$

REGIONAL REPORTS...DAKOTAS
CITY           SKY/WX    TMP DP  RH WIND       PRES   REMARKS
WILLISTON      CLOUDY    28  27  96 S5        29.83S WCI  22
DICKINSON      PTCLDY    39  30  70 W7        29.83S WCI  34
CROSBY         CLEAR     36  36 100 SW17G22   29.80S WCI  26
WATFORD CITY   CLEAR     28  28 100 SW3       29.82S
BISMARCK       PTCLDY    30  28  92 SE8       29.91F WCI  22
GRAND FORKS    FOG       27  25  92 SE13      30.03S VSB 3/4  WCI  16
FARGO          FOG       27  25  92 S12       30.07R VSB 1    WCI  16
BUFFALO SD     PTCLDY    41  28  60 W12       29.85S
RAPID CITY     CLEAR     45  25  45 NW10      29.95R
$$

REGIONAL REPORTS...WYOMING/IDAHO/WASHINGTON
CITY           SKY/WX    TMP DP  RH WIND       PRES   REMARKS
GILLETTE       PTCLDY    48  27  44 SW16      30.00R
SHERIDAN       PTCLDY    34  25  70 CALM      29.97R
CODY           PTCLDY    43  25  49 SW21      30.03S
YELLOWSTONE LA PTCLDY     3   0  87 CALM      30.24F
SALMON         CLOUDY   N/A N/A N/A CALM      30.17S VSB 1
MULLAN PASS    MOCLDY    45  25  45 W5        30.01S
SAND POINT     FOG      N/A N/A N/A CALM      30.02S VSB M1/4
SPOKANE        FOG       30  30 100 NE6       29.97F VSB M1/4 WCI  24

$$



USA.gov is the U.S. government's official web portal to all federal, state and local government web resources and services.